N1OTX Weather Reports


Display with metric or nautical units.
time (UTC)temp
F
wind
direction
speed
MPH
gust
MPH
rain 1hr
in
rain 24hr
in
rain mn
in
humidity
%
barometer
mb
20220518170001 67 338 4.0 9.0 0.00 0.00 0.00 29 1010.6
20220518165501 67 338 2.0 6.0 0.00 0.00 0.00 34 1010.6
20220518165001 67 338 5.0 11.0 0.00 0.00 0.00 27 1010.8
20220518164501 67 338 5.0 13.0 0.00 0.00 0.00 29 1010.7
20220518164001 66 0 4.0 8.0 0.00 0.00 0.00 29 1010.9
20220518163501 66 338 4.0 9.0 0.00 0.00 0.00 33 1010.9
20220518163001 66 0 4.0 14.0 0.00 0.00 0.00 30 1010.8
20220518162501 66 0 5.0 12.0 0.00 0.00 0.00 29 1010.8
20220518162001 66 338 5.0 11.0 0.00 0.00 0.00 30 1010.9
20220518161501 66 338 4.0 10.0 0.00 0.00 0.00 30 1011.1
20220518161001 66 23 4.0 10.0 0.00 0.00 0.00 30 1011.0
20220518160501 66 203 3.0 11.0 0.00 0.00 0.00 31 1011.0
20220518160002 66 0 3.0 9.0 0.00 0.00 0.00 29 1011.1
20220518155501 66 315 4.0 11.0 0.00 0.00 0.00 36 1011.1
20220518155001 65 338 4.0 10.0 0.00 0.00 0.00 31 1011.2
20220518154501 65 338 4.0 12.0 0.00 0.00 0.00 33 1011.3
20220518154001 65 338 4.0 11.0 0.00 0.00 0.00 30 1011.2
20220518153501 64 23 4.0 8.0 0.00 0.00 0.00 32 1011.3
20220518153001 64 338 4.0 10.0 0.00 0.00 0.00 32 1011.4
20220518152501 64 338 5.0 13.0 0.00 0.00 0.00 32 1011.3
20220518152001 64 293 3.0 13.0 0.00 0.00 0.00 33 1011.4
20220518151501 64 315 3.0 6.0 0.00 0.00 0.00 34 1011.5
20220518151001 64 0 3.0 11.0 0.00 0.00 0.00 36 1011.5
20220518150501 63 0 2.0 15.0 0.00 0.00 0.00 34 1011.6
20220518150001 63 0 3.0 15.0 0.00 0.00 0.00 37 1011.8
20220518145501 63 315 4.0 13.0 0.00 0.00 0.00 34 1011.8
20220518145001 63 338 4.0 10.0 0.00 0.00 0.00 39 1011.7
20220518144501 63 315 3.0 9.0 0.00 0.00 0.00 39 1011.6
20220518144001 62 0 3.0 10.0 0.00 0.00 0.00 36 1011.6
20220518143501 62 338 3.0 8.0 0.00 0.00 0.00 39 1011.5
20220518143001 62 315 4.0 11.0 0.00 0.00 0.00 39 1011.4
20220518142501 62 338 2.0 4.0 0.00 0.00 0.00 47 1011.4
20220518142001 62 338 3.0 9.0 0.00 0.00 0.00 39 1011.3
20220518141501 61 0 5.0 11.0 0.00 0.00 0.00 37 1011.2
20220518141002 61 23 4.0 11.0 0.00 0.00 0.00 37 1011.1
20220518140501 61 0 2.0 10.0 0.00 0.00 0.00 42 1011.0
20220518140001 61 0 4.0 11.0 0.00 0.00 0.00 43 1010.9
20220518135501 60 338 4.0 9.0 0.00 0.00 0.00 43 1010.9
20220518135001 60 0 4.0 10.0 0.00 0.00 0.00 43 1010.9
20220518134501 60 338 4.0 8.0 0.00 0.00 0.00 43 1010.9
20220518134001 59 338 4.0 9.0 0.00 0.00 0.00 44 1010.8
20220518133501 59 338 4.0 9.0 0.00 0.00 0.00 44 1010.9
20220518133001 59 338 4.0 9.0 0.00 0.00 0.00 44 1010.8
20220518132501 59 338 4.0 9.0 0.00 0.00 0.00 45 1010.8
20220518132001 59 0 4.0 11.0 0.00 0.00 0.00 46 1010.8
20220518131501 59 0 4.0 9.0 0.00 0.00 0.00 46 1010.7
20220518131001 59 0 3.0 5.0 0.00 0.00 0.00 47 1010.7
20220518130501 58 0 3.0 9.0 0.00 0.00 0.00 49 1010.7
20220518130001 59 338 4.0 11.0 0.00 0.00 0.00 46 1010.6
20220518125501 59 68 3.0 6.0 0.00 0.00 0.00 48 1010.5
20220518125001 59 45 2.0 4.0 0.00 0.00 0.00 49 1010.4
20220518124501 58 338 4.0 9.0 0.00 0.00 0.00 48 1010.3
20220518124001 58 0 3.0 8.0 0.00 0.00 0.00 52 1010.3
20220518123501 57 338 5.0 10.0 0.00 0.00 0.00 52 1010.3
20220518123001 58 0 4.0 10.0 0.00 0.00 0.00 54 1010.4
20220518122501 57 315 3.0 8.0 0.00 0.00 0.00 58 1010.4
20220518122001 57 0 3.0 5.0 0.00 0.00 0.00 55 1010.6
20220518121501 57 338 3.0 8.0 0.00 0.00 0.00 55 1010.4
20220518121001 57 315 4.0 12.0 0.00 0.00 0.00 59 1010.3
20220518120501 57 338 4.0 9.0 0.00 0.00 0.00 57 1010.5
20220518120001 57 338 3.0 12.0 0.00 0.00 0.00 58 1010.5
20220518115501 56 315 2.0 7.0 0.00 0.00 0.00 60 1010.5
20220518115001 56 0 3.0 9.0 0.00 0.00 0.00 60 1010.3
20220518114501 56 338 2.0 6.0 0.00 0.00 0.00 61 1010.3
20220518114001 56 338 3.0 9.0 0.00 0.00 0.00 61 1010.3
20220518113501 56 338 3.0 10.0 0.00 0.00 0.00 63 1010.3
20220518113001 56 90 2.0 8.0 0.00 0.00 0.00 64 1010.3
20220518112501 56 23 2.0 11.0 0.00 0.00 0.00 64 1010.3
20220518112001 55 293 3.0 9.0 0.00 0.00 0.00 65 1010.3
20220518111501 55 293 2.0 9.0 0.00 0.00 0.00 66 1010.3
20220518111001 55 0 2.0 6.0 0.00 0.00 0.00 67 1010.2
20220518110501 55 23 3.0 8.0 0.00 0.00 0.00 67 1010.2
20220518110001 55 338 3.0 9.0 0.00 0.00 0.00 67 1010.3
20220518105501 55 315 2.0 7.0 0.00 0.00 0.00 69 1010.5
20220518105001 54 113 1.0 4.0 0.00 0.00 0.00 68 1010.5
20220518104501 54 90 2.0 4.0 0.00 0.00 0.00 67 1010.3
20220518104001 54 0 1.0 7.0 0.00 0.00 0.00 67 1010.2
20220518103501 53 90 1.0 4.0 0.00 0.00 0.00 67 1010.2
20220518103001 53 23 1.0 8.0 0.00 0.00 0.00 68 1010.1
20220518102501 53 338 1.0 3.0 0.00 0.00 0.00 69 1010.0
20220518102001 53 338 1.0 4.0 0.00 0.00 0.00 69 1010.1
20220518101501 52 0 1.0 3.0 0.00 0.00 0.00 70 1010.1
20220518101001 52 338 1.0 4.0 0.00 0.00 0.00 70 1009.9
20220518100501 52 0.0 2.0 0.00 0.00 0.00 71 1009.8
20220518100001 52 0.0 4.0 0.00 0.00 0.00 73 1009.8
20220518095501 52 113 1.0 3.0 0.00 0.00 0.00 74 1009.8
20220518095001 52 0 1.0 2.0 0.00 0.00 0.00 73 1009.7
20220518094501 51 158 1.0 9.0 0.00 0.00 0.00 75 1009.6
20220518094001 51 0.0 5.0 0.00 0.00 0.00 75 1009.6
20220518093501 51 90 1.0 3.0 0.00 0.00 0.00 76 1009.7
20220518093001 51 90 1.0 3.0 0.00 0.00 0.00 78 1009.7
20220518092501 50 135 2.0 4.0 0.00 0.00 0.00 80 1009.5
20220518092001 50 0 1.0 3.0 0.00 0.00 0.00 82 1009.4
20220518091501 49 248 1.0 4.0 0.00 0.00 0.00 83 1009.4
20220518091001 49 0.0 2.0 0.00 0.00 0.00 83 1009.2
20220518090501 49 0.0 2.0 0.00 0.00 0.00 82 1009.0
20220518090001 49 0.0 2.0 0.00 0.00 0.00 82 1009.0
20220518085501 49 0.0 2.0 0.00 0.00 0.00 82 1009.1
20220518085001 49 0.0 2.0 0.00 0.00 0.00 81 1009.0
20220518084501 49 0.0 1.0 0.00 0.00 0.00 81 1009.0
20220518084001 49 0.0 1.0 0.00 0.00 0.00 81 1008.9
20220518083501 49 248 1.0 2.0 0.00 0.00 0.00 80 1008.8
20220518083001 50 0.0 1.0 0.00 0.00 0.00 80 1008.8
20220518082501 50 248 1.0 2.0 0.00 0.00 0.00 80 1008.8
20220518082001 50 248 1.0 2.0 0.00 0.00 0.00 80 1008.8
20220518081501 50 0.0 1.0 0.00 0.00 0.00 80 1008.7
20220518081001 50 0.0 0.0 0.00 0.00 0.00 79 1008.7
20220518080501 50 0.0 1.0 0.00 0.00 0.00 79 1008.5
20220518080001 51 0.0 1.0 0.00 0.00 0.00 78 1008.5
20220518075501 51 0.0 0.0 0.00 0.00 0.00 78 1008.4
20220518075001 51 0.0 1.0 0.00 0.00 0.00 78 1008.3
20220518074501 51 248 1.0 2.0 0.00 0.00 0.00 78 1008.3
20220518074001 51 248 1.0 2.0 0.00 0.00 0.00 79 1008.2
20220518073501 51 0.0 2.0 0.00 0.00 0.00 78 1008.1
20220518073000 51 0.0 0.0 0.00 0.00 0.00 78 1008.0
20220518072503 51 0.0 1.0 0.00 0.00 0.00 78 1007.9
20220518072003 51 0.0 1.0 0.00 0.00 0.00 77 1008.0
20220518071502 52 0.0 0.0 0.00 0.00 0.00 77 1007.9
20220518071003 52 0.0 3.0 0.00 0.00 0.00 76 1007.9
20220518070503 52 0.0 2.0 0.00 0.00 0.00 75 1007.9
20220518070003 52 0.0 2.0 0.00 0.00 0.00 75 1007.8
20220518065503 53 0.0 2.0 0.00 0.01 0.00 75 1007.7
20220518065002 53 0.0 1.0 0.00 0.01 0.00 75 1007.7
20220518064503 53 225 1.0 2.0 0.00 0.01 0.00 74 1007.7
20220518064003 53 0.0 2.0 0.00 0.01 0.00 75 1007.6
20220518063503 53 0.0 1.0 0.00 0.01 0.00 74 1007.6
20220518063003 53 0.0 1.0 0.00 0.01 0.00 73 1007.5
20220518062503 54 0.0 2.0 0.00 0.01 0.00 73 1007.6
20220518062003 54 0.0 2.0 0.00 0.01 0.00 72 1007.6
20220518061502 55 270 1.0 4.0 0.00 0.01 0.00 71 1007.7
20220518061003 55 248 1.0 3.0 0.00 0.01 0.00 70 1007.8
20220518060502 55 180 1.0 4.0 0.00 0.01 0.00 70 1007.8
20220518060002 55 203 1.0 4.0 0.00 0.01 0.00 70 1007.7
20220518055503 55 0.0 0.0 0.00 0.01 0.00 69 1007.7
20220518055002 55 248 1.0 5.0 0.00 0.01 0.00 69 1007.7
20220518054502 55 0.0 3.0 0.00 0.01 0.00 69 1007.8
20220518054002 55 248 1.0 4.0 0.00 0.01 0.00 68 1007.8
20220518053502 56 180 1.0 3.0 0.00 0.01 0.00 68 1007.8
20220518053002 56 270 1.0 8.0 0.00 0.01 0.00 68 1007.8
20220518052503 56 248 1.0 7.0 0.00 0.01 0.00 67 1007.9
20220518052002 56 180 1.0 3.0 0.00 0.01 0.00 67 1007.8
20220518051502 56 225 1.0 4.0 0.00 0.01 0.00 67 1007.7
20220518051002 56 180 1.0 4.0 0.00 0.01 0.00 67 1007.8
20220518050503 56 0.0 3.0 0.00 0.01 0.00 67 1007.7
20220518050002 56 315 1.0 4.0 0.00 0.01 0.00 66 1007.7
20220518045502 57 158 1.0 2.0 0.00 0.01 0.00 66 1007.8
20220518045002 57 225 1.0 4.0 0.00 0.01 0.00 65 1007.8
20220518044502 57 270 1.0 3.0 0.00 0.01 0.00 65 1007.8
20220518044002 57 293 1.0 6.0 0.00 0.01 0.00 64 1007.8
20220518043502 57 270 1.0 6.0 0.00 0.01 0.00 65 1007.9
20220518043003 57 203 1.0 5.0 0.00 0.01 0.00 64 1007.9
20220518042502 57 293 1.0 7.0 0.00 0.01 0.00 64 1007.9
20220518042003 57 270 1.0 4.0 0.00 0.01 0.00 64 1007.8
20220518041502 57 270 1.0 4.0 0.00 0.01 0.00 64 1007.9
20220518041002 57 270 1.0 4.0 0.00 0.01 0.00 64 1007.8
20220518040502 57 270 1.0 3.0 0.00 0.01 0.00 63 1007.8
20220518040004 57 113 1.0 3.0 0.00 0.01 0.01 63 1007.7
20220518035503 57 270 2.0 9.0 0.00 0.01 0.01 62 1007.6
20220518035002 57 293 1.0 7.0 0.00 0.01 0.01 63 1007.6
20220518034502 58 0.0 2.0 0.00 0.01 0.01 63 1007.7
20220518034002 58 113 1.0 4.0 0.00 0.01 0.01 62 1007.7
20220518033502 58 113 1.0 5.0 0.00 0.01 0.01 62 1007.7
20220518033002 58 270 1.0 5.0 0.00 0.01 0.01 61 1007.8
20220518032502 58 0 2.0 4.0 0.00 0.01 0.01 61 1007.6
20220518032002 58 315 1.0 3.0 0.00 0.01 0.01 61 1007.5
20220518031502 58 293 1.0 3.0 0.00 0.01 0.01 61 1007.5
20220518031002 58 293 1.0 6.0 0.00 0.01 0.01 60 1007.5
20220518030502 59 0.0 1.0 0.00 0.01 0.01 60 1007.5
20220518030003 59 0.0 1.0 0.00 0.02 0.01 58 1007.5
20220518025502 59 23 1.0 5.0 0.00 0.02 0.01 58 1007.5
20220518025002 59 293 1.0 6.0 0.00 0.02 0.01 58 1007.5
20220518024502 59 293 1.0 5.0 0.00 0.02 0.01 57 1007.5
20220518024002 60 0 1.0 5.0 0.00 0.02 0.01 58 1007.5
20220518023502 60 315 1.0 4.0 0.00 0.02 0.01 58 1007.5
20220518023002 60 315 2.0 8.0 0.00 0.02 0.01 57 1007.5
20220518022502 60 0 2.0 7.0 0.00 0.02 0.01 56 1007.6
20220518022002 60 315 2.0 8.0 0.00 0.02 0.01 56 1007.6
20220518021502 61 338 2.0 5.0 0.00 0.02 0.01 56 1007.5
20220518021002 61 45 1.0 6.0 0.00 0.02 0.01 56 1007.5
20220518020502 61 203 2.0 10.0 0.00 0.02 0.01 54 1007.4
20220518020002 61 0 4.0 14.0 0.00 0.07 0.01 55 1007.5
20220518015502 61 135 2.0 5.0 0.00 0.07 0.01 55 1007.4
20220518015003 61 180 1.0 4.0 0.00 0.07 0.01 54 1007.3
20220518014502 61 23 1.0 3.0 0.00 0.07 0.01 54 1007.3
20220518014002 61 270 1.0 6.0 0.00 0.07 0.01 53 1007.3
20220518013502 62 68 1.0 4.0 0.00 0.07 0.01 53 1007.2
20220518013002 62 113 1.0 5.0 0.00 0.07 0.01 52 1007.2
20220518012502 62 45 2.0 7.0 0.00 0.07 0.01 51 1007.1
20220518012002 62 225 3.0 10.0 0.00 0.07 0.01 53 1007.0
20220518011502 62 0 3.0 11.0 0.00 0.07 0.01 52 1006.9
20220518011002 62 338 2.0 8.0 0.00 0.07 0.01 53 1006.7
20220518010502 62 203 2.0 9.0 0.00 0.07 0.01 54 1006.7
20220518010002 62 23 1.0 5.0 0.00 0.13 0.01 53 1006.7
20220518005502 62 315 2.0 5.0 0.00 0.13 0.01 53 1006.7
20220518005002 63 68 1.0 3.0 0.00 0.13 0.01 52 1006.6
20220518004502 63 23 2.0 3.0 0.00 0.13 0.01 52 1006.5
20220518004002 63 270 2.0 5.0 0.00 0.13 0.01 51 1006.5
20220518003502 63 315 2.0 8.0 0.00 0.13 0.01 51 1006.5
20220518003002 63 0 1.0 4.0 0.00 0.13 0.01 51 1006.5
20220518002502 63 23 2.0 7.0 0.00 0.13 0.01 50 1006.3
20220518002002 63 0 1.0 5.0 0.00 0.13 0.01 51 1006.3
20220518001502 64 315 2.0 8.0 0.00 0.13 0.01 49 1006.2
20220518001002 64 338 1.0 3.0 0.00 0.13 0.01 49 1006.2
20220518000502 64 0 2.0 5.0 0.00 0.13 0.01 48 1006.0
20220518000002 64 23 3.0 7.0 0.00 0.13 0.01 48 1005.9
20220517235502 65 135 2.0 11.0 0.00 0.13 0.01 47 1005.8
20220517235002 65 338 4.0 12.0 0.00 0.13 0.01 47 1005.7
20220517234502 65 113 3.0 14.0 0.00 0.13 0.01 47 1005.6
20220517234002 65 113 3.0 16.0 0.00 0.13 0.01 49 1005.5
20220517233502 65 0 3.0 12.0 0.00 0.13 0.01 47 1005.4
20220517233002 66 0 2.0 8.0 0.00 0.13 0.01 47 1005.4
20220517232502 66 0 2.0 6.0 0.00 0.13 0.01 45 1005.2
20220517232002 66 0 3.0 10.0 0.00 0.13 0.01 45 1005.2
20220517231502 66 315 4.0 15.0 0.00 0.13 0.01 45 1005.1
20220517231002 67 338 4.0 14.0 0.00 0.13 0.01 45 1005.0
20220517230502 67 68 2.0 9.0 0.00 0.13 0.01 45 1004.9
20220517230002 67 113 3.0 14.0 0.00 0.13 0.01 44 1004.6
20220517225502 67 338 3.0 7.0 0.00 0.13 0.01 43 1004.4
20220517225002 67 338 4.0 10.0 0.00 0.13 0.01 43 1004.4
20220517224502 68 23 3.0 10.0 0.00 0.13 0.01 43 1004.3
20220517224002 68 23 4.0 12.0 0.00 0.13 0.01 42 1004.3
20220517223502 68 0 5.0 11.0 0.00 0.13 0.01 42 1004.2
20220517223002 68 45 4.0 10.0 0.00 0.13 0.01 42 1004.2
20220517222502 68 0 2.0 10.0 0.00 0.13 0.01 44 1004.1
20220517222002 68 315 4.0 10.0 0.00 0.13 0.01 44 1003.9
20220517221502 68 338 3.0 10.0 0.00 0.13 0.01 41 1003.8
20220517221002 68 225 5.0 11.0 0.00 0.13 0.01 41 1003.8
20220517220502 69 270 4.0 25.0 0.00 0.13 0.01 41 1003.7
20220517220002 69 0 4.0 13.0 0.00 0.13 0.01 42 1003.7
20220517215502 69 135 3.0 11.0 0.00 0.13 0.01 41 1003.6
20220517215002 69 270 4.0 13.0 0.00 0.13 0.01 42 1003.5
20220517214502 69 23 3.0 7.0 0.00 0.13 0.01 39 1003.4
20220517214002 69 338 4.0 10.0 0.00 0.13 0.01 39 1003.3
20220517213502 69 338 3.0 13.0 0.00 0.13 0.01 39 1003.3
20220517213002 69 23 4.0 17.0 0.00 0.13 0.01 39 1003.2
20220517212502 70 338 4.0 13.0 0.00 0.13 0.01 40 1003.2
20220517212002 70 0 4.0 11.0 0.00 0.13 0.01 38 1003.0
20220517211502 70 0 4.0 10.0 0.00 0.13 0.01 40 1002.9
20220517211002 70 23 6.0 14.0 0.00 0.13 0.01 39 1002.8
20220517210502 70 0 5.0 12.0 0.00 0.13 0.01 40 1002.7
20220517210002 71 0 3.0 9.0 0.00 0.13 0.01 42 1002.7
20220517205502 71 23 3.0 13.0 0.00 0.13 0.01 43 1002.6
20220517205002 71 0 3.0 8.0 0.00 0.13 0.01 44 1002.4
20220517204502 71 338 4.0 16.0 0.00 0.13 0.01 46 1002.3
20220517204002 71 23 4.0 13.0 0.00 0.13 0.01 42 1002.2
20220517203502 72 293 2.0 10.0 0.00 0.13 0.01 43 1002.2
20220517203002 71 203 4.0 14.0 0.00 0.13 0.01 44 1002.2
20220517202502 70 338 4.0 15.0 0.00 0.13 0.01 41 1002.2
20220517202002 70 338 5.0 16.0 0.00 0.13 0.01 44 1002.2
20220517201502 70 293 3.0 11.0 0.00 0.13 0.01 48 1002.1
20220517201002 71 338 5.0 10.0 0.00 0.13 0.01 44 1002.1
20220517200502 72 338 4.0 15.0 0.00 0.13 0.01 44 1002.0
20220517200002 72 315 4.0 15.0 0.00 0.13 0.01 43 1001.9
20220517195502 73 270 4.0 15.0 0.00 0.13 0.01 42 1002.0
20220517195002 73 248 4.0 13.0 0.00 0.13 0.01 46 1001.9
20220517194502 72 248 3.0 10.0 0.00 0.13 0.01 49 1002.0
20220517194002 71 338 4.0 8.0 0.00 0.13 0.01 48 1001.9
20220517193502 72 203 5.0 11.0 0.00 0.13 0.01 47 1002.0
20220517193002 72 203 5.0 11.0 0.00 0.13 0.01 48 1002.1
20220517192502 72 225 3.0 7.0 0.00 0.13 0.01 50 1002.1
20220517192002 72 293 4.0 12.0 0.00 0.13 0.01 52 1002.1
20220517191502 72 180 4.0 11.0 0.00 0.13 0.01 50 1002.1
20220517191002 72 45 2.0 5.0 0.00 0.13 0.01 49 1002.1
20220517190502 72 338 4.0 11.0 0.00 0.13 0.01 52 1002.1
20220517190002 71 293 4.0 11.0 0.00 0.13 0.01 50 1002.1
20220517185501 70 180 4.0 12.0 0.00 0.13 0.01 54 1002.2
20220517185002 69 225 3.0 17.0 0.00 0.13 0.01 58 1002.2
20220517184501 69 180 5.0 14.0 0.00 0.13 0.01 56 1002.3
20220517184002 70 225 3.0 9.0 0.00 0.13 0.01 56 1002.3
20220517183502 70 203 4.0 12.0 0.00 0.13 0.01 56 1002.3
20220517183002 71 68 3.0 6.0 0.00 0.13 0.01 56 1002.3
20220517182502 70 270 4.0 12.0 0.00 0.13 0.01 57 1002.3
20220517182001 69 315 3.0 8.0 0.00 0.13 0.01 55 1002.5
20220517181502 69 45 3.0 13.0 0.00 0.13 0.01 57 1002.5
20220517181002 68 0 2.0 7.0 0.00 0.13 0.01 61 1002.6
20220517180501 66 0 2.0 5.0 0.00 0.13 0.01 63 1002.7
20220517180002 66 45 2.0 10.0 0.00 0.13 0.01 62 1002.6
20220517175501 66 338 3.0 8.0 0.00 0.13 0.01 66 1002.7
20220517175002 65 23 1.0 3.0 0.00 0.13 0.01 69 1002.8
20220517174502 63 180 2.0 4.0 0.00 0.13 0.01 69 1003.0
20220517174002 63 203 2.0 5.0 0.00 0.13 0.01 70 1003.2
20220517173501 63 248 2.0 4.0 0.00 0.13 0.01 68 1003.2
20220517173001 64 0 3.0 8.0 0.00 0.13 0.01 64 1003.1
20220517172501 65 338 6.0 18.0 0.00 0.13 0.01 60 1003.3
20220517172001 66 338 6.0 17.0 0.00 0.13 0.01 58 1003.0
20220517171501 67 338 3.0 9.0 0.00 0.13 0.01 63 1002.8
20220517171001 67 203 3.0 13.0 0.00 0.13 0.01 66 1002.8
20220517170501 69 225 3.0 9.0 0.00 0.13 0.01 54 1002.6